Meteo pe oră la Alimbay

Astăzi, 23 Ianuarie, Sâmbătă

Timp Temperatura Precipitaţii Vânt Presiune Umiditate
00:00 -18°C° 0.1 mm 3 m/s 742 mmHg 96%
01:00 -18°C° 0.1 mm 3 m/s 743 mmHg 96%
02:00 -19°C° 0 mm 3 m/s 743 mmHg 97%
03:00 -22°C° 0 mm 3 m/s 743 mmHg 98%
04:00 -23°C° 0 mm 3 m/s 744 mmHg 99%
05:00 -24°C° 0 mm 3 m/s 745 mmHg 98%
06:00 -25°C° 0 mm 3 m/s 746 mmHg 98%
07:00 -26°C° 0 mm 3 m/s 746 mmHg 97%
08:00 -26°C° 0 mm 3 m/s 747 mmHg 96%
09:00 -25°C° 0 mm 3 m/s 748 mmHg 96%
10:00 -25°C° 0 mm 3 m/s 749 mmHg 95%
11:00 -24°C° 0 mm 2 m/s 749 mmHg 94%
12:00 -23°C° 0 mm 2 m/s 750 mmHg 93%
13:00 -21°C° 0 mm 2 m/s 751 mmHg 93%
14:00 -23°C° 0 mm 2 m/s 751 mmHg 93%
15:00 -24°C° 0 mm 2 m/s 751 mmHg 93%
16:00 -24°C° 0 mm 2 m/s 751 mmHg 93%
17:00 -24°C° 0 mm 2 m/s 752 mmHg 93%
18:00 -25°C° 0 mm 3 m/s 752 mmHg 93%
19:00 -25°C° 0 mm 3 m/s 752 mmHg 93%
20:00 -25°C° 0 mm 3 m/s 752 mmHg 93%
21:00 -25°C° 0 mm 4 m/s 752 mmHg 93%
22:00 -24°C° 0 mm 4 m/s 752 mmHg 93%
23:00 -25°C° 0 mm 5 m/s 752 mmHg 94%

Mâine, 24 Ianuarie, Duminică

Timp Temperatura Precipitaţii Vânt Presiune Umiditate
00:00 -24°C° 0 mm 5 m/s 752 mmHg 95%
01:00 -24°C° 0 mm 5 m/s 751 mmHg 95%
02:00 -22°C° 0.2 mm 5 m/s 751 mmHg 95%
03:00 -21°C° 0.2 mm 5 m/s 751 mmHg 95%
04:00 -21°C° 0.2 mm 6 m/s 750 mmHg 95%
05:00 -20°C° 0.3 mm 6 m/s 750 mmHg 95%
06:00 -18°C° 0.3 mm 6 m/s 750 mmHg 94%
07:00 -17°C° 0.3 mm 5 m/s 750 mmHg 94%
08:00 -15°C° 0.3 mm 5 m/s 750 mmHg 94%
09:00 -14°C° 0.3 mm 5 m/s 750 mmHg 94%
10:00 -13°C° 0.3 mm 5 m/s 750 mmHg 94%
11:00 -11°C° 0.2 mm 5 m/s 750 mmHg 94%
12:00 -10°C° 0.2 mm 5 m/s 750 mmHg 94%
13:00 -8°C° 0.2 mm 5 m/s 749 mmHg 94%
14:00 -8°C° 0.1 mm 5 m/s 749 mmHg 94%
15:00 -7°C° 0.1 mm 5 m/s 749 mmHg 94%
16:00 -7°C° 0.1 mm 5 m/s 749 mmHg 94%
17:00 -7°C° 0 mm 5 m/s 749 mmHg 94%
18:00 -7°C° 0 mm 4 m/s 750 mmHg 94%
19:00 -7°C° 0 mm 4 m/s 750 mmHg 95%
20:00 -7°C° 0 mm 4 m/s 750 mmHg 95%
21:00 -7°C° 0 mm 5 m/s 750 mmHg 95%
22:00 -6°C° 0 mm 5 m/s 750 mmHg 95%
23:00 -6°C° 0.1 mm 5 m/s 750 mmHg 95%

Poimâine, 25 Ianuarie, Luni

Timp Temperatura Precipitaţii Vânt Presiune Umiditate
00:00 -6°C° 0.1 mm 5 m/s 750 mmHg 95%
01:00 -5°C° 0.1 mm 4 m/s 751 mmHg 96%
02:00 -5°C° 0.1 mm 4 m/s 751 mmHg 96%
03:00 -5°C° 0.1 mm 4 m/s 751 mmHg 96%
04:00 -5°C° 0.1 mm 4 m/s 751 mmHg 96%
05:00 -7°C° 0.1 mm 4 m/s 751 mmHg 96%
06:00 -7°C° 0.1 mm 4 m/s 751 mmHg 96%
07:00 -7°C° 0.1 mm 3 m/s 751 mmHg 96%
08:00 -6°C° 0 mm 3 m/s 751 mmHg 96%
09:00 -6°C° 0 mm 3 m/s 752 mmHg 96%
10:00 -6°C° 0 mm 3 m/s 752 mmHg 96%
11:00 -6°C° 0 mm 3 m/s 752 mmHg 96%
12:00 -6°C° 0 mm 3 m/s 752 mmHg 95%
13:00 -6°C° 0 mm 3 m/s 752 mmHg 95%
14:00 -6°C° 0 mm 3 m/s 752 mmHg 96%
15:00 -7°C° 0 mm 3 m/s 752 mmHg 96%
16:00 -8°C° 0 mm 3 m/s 752 mmHg 96%
17:00 -7°C° 0 mm 3 m/s 752 mmHg 96%
18:00 -6°C° 0 mm 2 m/s 752 mmHg 96%
19:00 -6°C° 0 mm 2 m/s 752 mmHg 96%
20:00 -6°C° 0 mm 2 m/s 752 mmHg 96%
21:00 -5°C° 0 mm 2 m/s 752 mmHg 95%
22:00 -3°C° 0 mm 1 m/s 752 mmHg 95%
23:00 -3°C° 0 mm 1 m/s 752 mmHg 94%

26 Ianuarie, Marţi

Timp Temperatura Precipitaţii Vânt Presiune Umiditate
00:00 -3°C° 0 mm 1 m/s 752 mmHg 94%
01:00 -3°C° 0 mm 1 m/s 752 mmHg 94%
02:00 -3°C° 0 mm 1 m/s 752 mmHg 94%
03:00 -5°C° 0 mm 2 m/s 752 mmHg 94%
04:00 -5°C° 0 mm 2 m/s 752 mmHg 95%
05:00 -5°C° 0 mm 2 m/s 752 mmHg 95%
06:00 -5°C° 0 mm 2 m/s 752 mmHg 95%
07:00 -5°C° 0 mm 2 m/s 752 mmHg 95%
08:00 -5°C° 0 mm 2 m/s 752 mmHg 95%
09:00 -5°C° 0 mm 2 m/s 753 mmHg 95%
10:00 -5°C° 0 mm 2 m/s 753 mmHg 94%
11:00 -7°C° 0 mm 3 m/s 753 mmHg 94%
12:00 -7°C° 0 mm 3 m/s 753 mmHg 94%
13:00 -7°C° 0 mm 3 m/s 753 mmHg 94%
14:00 -8°C° 0 mm 3 m/s 752 mmHg 94%
15:00 -9°C° 0 mm 3 m/s 752 mmHg 93%
16:00 -10°C° 0 mm 3 m/s 752 mmHg 93%
17:00 -12°C° 0 mm 3 m/s 752 mmHg 91%
18:00 -13°C° 0 mm 3 m/s 752 mmHg 90%
19:00 -13°C° 0 mm 3 m/s 752 mmHg 89%
20:00 -14°C° 0 mm 3 m/s 753 mmHg 87%
21:00 -14°C° 0 mm 3 m/s 753 mmHg 85%
22:00 -14°C° 0 mm 3 m/s 753 mmHg 84%
23:00 -14°C° 0 mm 3 m/s 753 mmHg 84%

27 Ianuarie, Miercuri

Timp Temperatura Precipitaţii Vânt Presiune Umiditate
00:00 -15°C° 0 mm 3 m/s 753 mmHg 84%
01:00 -15°C° 0 mm 3 m/s 753 mmHg 83%
02:00 -15°C° 0 mm 3 m/s 753 mmHg 84%
03:00 -15°C° 0 mm 3 m/s 753 mmHg 84%
04:00 -15°C° 0 mm 3 m/s 753 mmHg 84%
05:00 -15°C° 0 mm 3 m/s 753 mmHg 85%
06:00 -15°C° 0 mm 3 m/s 753 mmHg 85%
07:00 -15°C° 0 mm 3 m/s 753 mmHg 85%
08:00 -14°C° 0 mm 3 m/s 753 mmHg 86%
09:00 -14°C° 0 mm 3 m/s 753 mmHg 87%
10:00 -13°C° 0 mm 3 m/s 753 mmHg 88%
11:00 -12°C° 0 mm 4 m/s 753 mmHg 89%
12:00 -11°C° 0 mm 4 m/s 753 mmHg 89%
13:00 -10°C° 0 mm 4 m/s 753 mmHg 90%
14:00 -11°C° 0 mm 4 m/s 752 mmHg 90%
15:00 -11°C° 0 mm 4 m/s 752 mmHg 91%
16:00 -12°C° 0 mm 4 m/s 752 mmHg 92%
17:00 -14°C° 0 mm 4 m/s 752 mmHg 92%
18:00 -14°C° 0 mm 4 m/s 752 mmHg 92%
19:00 -15°C° 0 mm 4 m/s 752 mmHg 92%
20:00 -15°C° 0 mm 4 m/s 752 mmHg 92%
21:00 -15°C° 0 mm 4 m/s 752 mmHg 93%
22:00 -15°C° 0 mm 4 m/s 752 mmHg 93%
23:00 -15°C° 0 mm 4 m/s 752 mmHg 93%

28 Ianuarie, Joi

Timp Temperatura Precipitaţii Vânt Presiune Umiditate
00:00 -16°C° 0 mm 4 m/s 752 mmHg 94%
01:00 -16°C° 0 mm 4 m/s 751 mmHg 94%
02:00 -16°C° 0 mm 4 m/s 751 mmHg 94%
03:00 -16°C° 0 mm 4 m/s 751 mmHg 94%
04:00 -16°C° 0 mm 4 m/s 751 mmHg 93%
05:00 -16°C° 0 mm 4 m/s 750 mmHg 93%
06:00 -16°C° 0 mm 4 m/s 750 mmHg 92%
07:00 -17°C° 0 mm 5 m/s 750 mmHg 92%
08:00 -15°C° 0 mm 5 m/s 750 mmHg 90%
09:00 -15°C° 0 mm 6 m/s 750 mmHg 89%
10:00 -14°C° 0 mm 7 m/s 749 mmHg 87%
11:00 -14°C° 0 mm 7 m/s 749 mmHg 86%
12:00 -13°C° 0 mm 7 m/s 748 mmHg 85%
13:00 -12°C° 0 mm 7 m/s 748 mmHg 84%
14:00 -12°C° 0 mm 7 m/s 747 mmHg 84%
15:00 -13°C° 0 mm 7 m/s 747 mmHg 84%
16:00 -13°C° 0 mm 7 m/s 746 mmHg 84%
17:00 -13°C° 0 mm 7 m/s 746 mmHg 84%
18:00 -13°C° 0 mm 8 m/s 746 mmHg 84%
19:00 -13°C° 0 mm 8 m/s 745 mmHg 85%
20:00 -13°C° 0 mm 8 m/s 745 mmHg 85%
21:00 -13°C° 0 mm 8 m/s 744 mmHg 85%
22:00 -13°C° 0 mm 8 m/s 744 mmHg 86%
Arată mai mult

Formular de consimțământ

Meteoprog și furnizorii noștri de servicii pot stoca și accesa date personale, precum cookies, identificatori de dispozitiv sau alte tehnologii similare pe dispozitivul dumneavoastră și procesa astfel de date pentru a personaliza conținutul și reclamele, dar și pentru a oferi caracteristici de social media și pentru a analiza traficul.

  • Stocarea și/sau accesarea informațiilor pe dispozitivul dumneavoastră

    Cookies, identificatori de dispozitiv sau alte informații pot fi stocate sau accesate pe dispozitiv în scopurile indicate mai sus.

  • Reclame și conținut personalizat, evaluarea reclamelor și a conținutului, informații despre audiențe și dezvoltarea produselor

    Reclamele și conținutul pot fi personalizate pe baza unui profil. Pot fi adăugate date suplimentare pentru a personaliza mai bine reclamele și conținutul. Performanța reclamelor și conținutului poate fi măsurată. Pot fi obținute informații despre utilizatorii care au văzut reclamele și conținutul. Aceste date pot fi utilizate pentru a dezvolta sau îmbunătăți experiența utilizatorilor, sistemele și software-ul.

Dând clic pe ‘Sunt de acord’, permiteți utilizarea cookie-urilor menționate, a identificatorilor de dispozitiv, balizelor web sau altor tehnologii similare. Setările pot fi modificate din browser-ul dispozitivului dumneavoastră.

În anumite scopuri, interesele legitime pot prima asupra consimțământului. Puteți citi mai multe informații în acest sens în Politica privind Confidențialitatea Datelor și Cookie.